sat.trackr.live / text

‹ back to catalog

STARLINK-34667

NORAD 64815 · 2025-150AB

PAYLOAD ACTIVE UNKNOWN

§ Identity

Operator
Country
US
Launch date
2025-07-16
Launch site
AFWTR
Launch vehicle
Mass (kg)
RCS (m²)

Purposes: comms

External: N2YO · Heavens-Above · Gunter

§ Orbital elements

Epoch: 2026-09-20T13:01:46.264512Z

Period
96.11 min
Inclination
70.0026°
Eccentricity
0.0003373
Mean motion
14.98334876 rev/d
Perigee alt
569.7 km
Apogee alt
574.4 km
Semi-major
6,950.2 km
B*
3.5038e-4
RAAN
3.1674°
Arg perigee
271.2397°
Mean anomaly
88.8376°
Rev number
6,570

§ Raw data

STARLINK-346671 64815U 25150AB  26263.54289658  .00004091  00000+0  35038-3 0  99982 64815  70.0026   3.1674 0003373 271.2397  88.8376 14.98334876 65700

JSON: /api/v1/satellites/64815 · /tle

For live sub-satellite position, see the globe view (requires WebGL).

§ Visibility from observer

Set your observer location to see the next 7 days of passes ≥ 10°. The values pass through the URL so the page stays shareable.

No JS? Fill the form by hand. The geolocation button needs JavaScript.